Location: Bemmer
(51.5498°N, 5.6249°E)
Time: 11:34:26
(UTC+00:00)

Cosmos 2219 Rocket - Pass Details

Date: 03 March 2021
Orbit: 826 x 848 km, 71.0° (Epoch: 17 April)

Event Time Altitude Azimuth Distance (km) Brightness Sun altitude
Rises 21:08:36 0° 236° (SW) 3,362 5.5 -34.1°
Reaches altitude 10° 21:11:12 10° 244° (WSW) 2,434 4.8 -34.4°
Maximum altitude 21:16:24 39° 312° (NW) 1,239 3.4 -35.0°
Drops below altitude 10° 21:21:39 10° 21° (NNE) 2,458 4.8 -35.6°
Sets 21:24:17 0° 29° (NNE) 3,400 5.5 -35.9°
